Bangor, ME

3:20 PM EDT on July 24, 2016 (GMT -0400)
Bangor International

Weather History for KBGR - June, 2014

Change the Weather History Date:

Saturday, June 7, 2014

  Actual Average Record
Temperature  
Mean Temperature 69 °F 61 °F  
Max Temperature 82 °F 72 °F 91 °F (1999)
Min Temperature 56 °F 50 °F 36 °F (2015)
Degree Days  
Heating Degree Days 0 5  
Month to date heating degree days 27 41  
Since 1 June heating degree days 27 41  
Since 1 July heating degree days 8090 7794  
Cooling Degree Days 4 1  
Month to date cooling degree days 4 7  
Year to date cooling degree days 4 13  
Since 1 June cooling degree days 4 7  
Growing Degree Days 19 (Base 50)    
Moisture  
Dew Point 55 °F    
Average Humidity 68    
Maximum Humidity 97    
Minimum Humidity 39    
Precipitation  
Precipitation 0.03 in 0.14 in 0.94 in (1926)
Month to date precipitation 0.60 0.94  
Year to date precipitation 15.01 16.99  
Snow  
Snow 0.00 in 0.00 in 0.00 in (2002)
Month to date snowfall 0.0 0.0  
Since 1 June snowfall 0.0 0.0  
Since 1 July snowfall 80.0 66.1  
Snow Depth 0.00 in    
Sea Level Pressure  
Sea Level Pressure 29.82 in    
Wind  
Wind Speed 9 mph (WNW)    
Max Wind Speed 18 mph    
Max Gust Speed 24 mph    
Visibility 10 miles    
Events Rain    
T = Trace of Precipitation, MM = Missing Value Source: NWS Daily Summary

Daily Weather History Graph

Daily Weather History Graph

Search for Another Location

Airport or City:

Trip Planner

Search our weather history database for the weather conditions in past years. The results will help you decide how hot, cold, wet, or windy it might be!

Date:

Astronomy

Jun. 07, 2014 Rise Set
Actual Time 4:50 AM EDT 8:18 PM EDT
Civil Twilight 4:13 AM EDT 8:55 PM EDT
Nautical Twilight 3:25 AM EDT 9:43 PM EDT
Astronomical Twilight 2:23 AM EDT 10:45 PM EDT
Moon 2:19 PM EDT (6/7) 1:24 AM EDT (6/7)
Length of Visible Light 16h 41m
Length of Day
15h 28m
Waxing Gibbous, 67% of the Moon is Illuminated
Jun 7
Waxing Gibbous
Jun 13
Full
Jun 19
Last Quarter
Jun 27
New
Jul 5
First Quarter

Hourly Weather History & Observations

Time (EDT) Temp. Heat Index Dew Point Humidity Pressure Visibility Wind Dir Wind Speed Gust Speed Precip Events Conditions
12:53 AM 60.1 °F - 53.1 °F 78% 29.77 in 10.0 mi WNW 10.4 mph - N/A   Scattered Clouds
1:53 AM 59.0 °F - 53.1 °F 81% 29.78 in 10.0 mi WNW 9.2 mph - 0.00 in   Scattered Clouds
2:53 AM 57.9 °F - 52.0 °F 81% 29.78 in 10.0 mi WNW 6.9 mph - N/A   Scattered Clouds
3:53 AM 57.9 °F - 52.0 °F 81% 29.78 in 10.0 mi WNW 6.9 mph - N/A   Overcast
4:53 AM 57.2 °F - 51.8 °F 82% 29.79 in 10.0 mi West 9.2 mph - N/A   Overcast
5:53 AM 57.0 °F - 52.0 °F 83% 29.80 in 10.0 mi West 6.9 mph - N/A   Mostly Cloudy
6:53 AM 59.0 °F - 53.1 °F 81% 29.81 in 10.0 mi West 5.8 mph - N/A   Mostly Cloudy
7:53 AM 64.9 °F - 55.0 °F 70% 29.83 in 10.0 mi WNW 6.9 mph - N/A   Mostly Cloudy
8:53 AM 69.8 °F - 55.4 °F 60% 29.83 in 10.0 mi NNW 11.5 mph - N/A   Mostly Cloudy
9:53 AM 72.0 °F - 55.9 °F 57% 29.82 in 10.0 mi NW 10.4 mph - N/A   Partly Cloudy
10:53 AM 75.2 °F - 55.4 °F 50% 29.83 in 10.0 mi NW 11.5 mph - N/A   Scattered Clouds
11:53 AM 77.0 °F - 55.9 °F 48% 29.82 in 10.0 mi North - - N/A   Mostly Cloudy
12:53 PM 80.1 °F 79.9 °F 53.1 °F 39% 29.81 in 10.0 mi North 12.7 mph 19.6 mph N/A   Mostly Cloudy
1:53 PM 78.1 °F - 54.0 °F 43% 29.81 in 10.0 mi NW 10.4 mph 16.1 mph N/A   Mostly Cloudy
2:53 PM 81.0 °F 80.7 °F 55.0 °F 41% 29.81 in 10.0 mi NW 13.8 mph - N/A   Mostly Cloudy
3:53 PM 81.0 °F 80.5 °F 54.0 °F 39% 29.81 in 10.0 mi NNW 13.8 mph - 0.00 in Rain Light Rain
4:53 PM 81.0 °F 80.5 °F 54.0 °F 39% 29.81 in 10.0 mi NW 12.7 mph 21.9 mph 0.00 in   Mostly Cloudy
5:53 PM 80.1 °F 80.0 °F 54.0 °F 40% 29.81 in 10.0 mi WNW 6.9 mph - N/A   Mostly Cloudy
6:53 PM 71.1 °F - 60.1 °F 68% 29.83 in 7.0 mi WNW 5.8 mph - 0.02 in Rain Light Rain
7:53 PM 66.9 °F - 60.1 °F 79% 29.83 in 10.0 mi West 4.6 mph - 0.01 in   Scattered Clouds
8:53 PM 63.0 °F - 59.0 °F 87% 29.84 in 10.0 mi West 4.6 mph - N/A   Scattered Clouds
9:53 PM 61.0 °F - 59.0 °F 93% 29.86 in 10.0 mi Calm Calm - N/A   Partly Cloudy
10:53 PM 59.0 °F - 57.0 °F 93% 29.87 in 10.0 mi WSW 3.5 mph - N/A   Partly Cloudy
11:53 PM 60.1 °F - 57.0 °F 90% 29.87 in 10.0 mi Calm Calm - N/A   Clear